STARLINK-2261 (48004 NORAD) Tracking and Keplerian Element Data

This shows tracking and keplerian element data for the satellite.

Feedback or suggestion? Click here.




ElementValue
Catalog48004
NameSTARLINK-2261
Epoch Orbit197
Epoch Day170.58334491
Epoch Year2021
RAAN130.8505
Inclination53.0483
Eccentricity0.0002342
Argument of Perigee27.0471
Mean Anonmoly315.9391
Mean Motion15.7289658
Decay Rate0.005001
L11 48004U 21024AD 21170.58334491 .00500100 00000-0 34030-2 0 9991
L22 48004 53.0483 130.8505 0002342 27.0471 315.9391 15.72896580 1974

Live tracking and technical data element details for STARLINK-2261 (NORAD 48004). STARLINK-2261 can be tracked NOW for your location showing map with azimuth and elevation plus other details from your city location.

Track the satellite on the map from your city or location and see movement details for azimuth, elevation, latitude, longitude, range, height, and movement on the map or in text.







IsCatalogInMostPopularTable: catalog: 48004, numindb: 43
Update: records affected: 1



GetName: 48004 STARLINK-2261

Hit Count: updated at: Mon, 21 Jun 2021 04:06:48 GMT